Location: Hopville
(44.8032°N, 123.1329°W)
Time: 03:52:23
(UTC+00:00)

Lacrosse 5 rocket - Pass Details

Date: 24 January 2021
Orbit: 464 x 630 km, 57.0° (Epoch: 26 February)

Event Time Altitude Azimuth Distance (km) Brightness Sun altitude
Exits shadow 12:53:44 26° 102° (ESE) 1,016 3.2 -29.3°
Drops below altitude 10° 12:55:32 10° 114° (ESE) 1,681 4.6 -29.0°
Sets 12:57:41 0° 119° (ESE) 2,538 5.6 -28.6°
